Flag for U.S.A. Weather past 2 weeks in Jackson, Mississippi, U.S.A.

Now
70 °F

Clear.


Feels Like: 65 °F
Forecast: 68 / 84 °F
Wind: 5 mph from Southeast

Location: Hawkins Field

Current Time: May 28, 2015 at 1:15:14 AM

Latest Report: May 28, 2015 at 12:53 AM


Visibility: 10 mi

Pressure: 30.09 "Hg

Humidity: 93%

Dew point: 68 °F

Location of JacksonLocation

Historic Weather in Jackson — Graph

°F

Jackson temperature yesterday

Maximum temperature yesterday: 81 °F (at 5:53 PM)
Minimum temperature yesterday: 70 °F (at 1:53 AM)
Average temperature yesterday: 75 °F

Past Weeks' High & Low Weather Summary

 TemperatureHumidityPressure
High87 °F (May 14, 3:53 PM)97% (May 18, 2:53 AM)30.24 "Hg (May 18, 2:53 AM)
Low52 °F (May 22, 5:53 AM)43% (May 22, 4:53 PM)29.91 "Hg (May 20, 6:53 PM)
Average73 °F78%30.09 "Hg
* Reported May 12 11:53 PM — May 27 11:53 PM, Jackson, Weather by CustomWeather, © 2015

Note: Actual official high and low records may vary slightly from our data, if they occured in-between our weather recording intervals... More about our weather records

Advertising

Jackson weather history for previous 24 hours

 ConditionsComfort  
Time TempWeatherWind HumidityBarometerVisibility
11:53 PM
Wed, May 27
71 °FClear.No wind90%30.10 "Hg10 mi
10:53 PM72 °FPassing clouds.No wind91%30.10 "Hg10 mi
9:53 PM73 °FLight rain. Fog.3 mph88%30.10 "Hg5 mi
8:53 PM74 °FPassing clouds.3 mph85%30.09 "Hg10 mi
7:53 PM75 °FPartly sunny.6 mph79%30.06 "Hg10 mi
6:53 PM78 °FScattered clouds.8 mph74%30.04 "Hg10 mi
5:53 PM81 °FPassing clouds.7 mph67%30.03 "Hg10 mi
4:53 PM79 °FSunny.8 mph62%30.05 "Hg10 mi
3:53 PM77 °FPartly sunny.7 mph79%30.07 "Hg10 mi
2:53 PM78 °FScattered clouds.9 mph82%30.09 "Hg10 mi
1:53 PM78 °FLight rain. Mostly cloudy.8 mph79%30.10 "Hg10 mi
12:53 PM79 °FPassing clouds.9 mph74%30.11 "Hg10 mi
11:53 AM80 °FPartly sunny.10 mph71%30.11 "Hg10 mi
10:53 AM79 °FMostly cloudy.12 mph77%30.13 "Hg10 mi
9:53 AM78 °FBroken clouds.10 mph82%30.12 "Hg10 mi
9:04 AM76 °FMostly cloudy.9 mph85%30.16 "Hg10 mi
8:53 AM75 °FMore clouds than sun.9 mph88%30.13 "Hg10 mi
7:58 AM73 °FFog.8 mph94%30.13 "Hg3 mi
7:02 AM72 °FFog.6 mph97%30.11 "Hg1 mi
6:53 AM72 °FFog.6 mph93%30.08 "Hg1 mi
6:03 AM72 °FFog.7 mph93%30.10 "Hg4 mi
5:53 AM72 °FLow clouds.5 mph93%30.07 "Hg9 mi
4:53 AM72 °FOvercast.6 mph91%30.08 "Hg10 mi
3:53 AM71 °FOvercast.3 mph90%30.08 "Hg10 mi
2:53 AM70 °FPassing clouds.5 mph90%30.08 "Hg10 mi
1:53 AM70 °FPassing clouds.5 mph90%30.09 "Hg10 mi
Weather by CustomWeather, © 2015

See weather overviewHow to use our weather pages